Location: Unspecified
(0.0000°N, 0.0000°E)
Time: 19:49:20
(UTC+02:00)

CZ-4B DEB - Visible Passes

Search period start: 29 April 2016 00:00
Search period end: 09 May 2016 00:00
Orbit: 440 x 448 km, 97.5° (Epoch: 29 April)

Date Brightness Start Highest point End Pass type
(mag) Time Alt. Az. Time Alt. Az. Time Alt. Az.
29 Apr 4.7 20:45:35 14° ENE 20:45:35 14° ENE 20:47:12 10° NE visible
30 Apr 4.3 21:42:02 36° NW 21:42:02 36° NW 21:44:18 10° NNW visible
01 May 3.9 21:04:55 28° ENE 21:04:55 28° ENE 21:07:21 10° NNE visible
02 May 5.6 22:01:18 18° WNW 22:01:18 18° WNW 22:02:45 10° NW visible
03 May 3.4 21:24:07 48° NNE 21:24:07 48° NNE 21:26:39 10° N visible
04 May 4.7 20:46:54 14° ENE 20:46:54 14° ENE 20:48:31 10° NE visible
05 May 4.4 21:43:09 35° NW 21:43:09 35° NW 21:45:22 10° NNW visible
06 May 3.9 21:05:51 28° ENE 21:05:51 28° ENE 21:08:16 10° NNE visible
07 May 5.7 22:02:02 18° WNW 22:02:02 18° WNW 22:03:28 10° NW visible
08 May 3.4 21:24:39 48° NNE 21:24:39 48° NNE 21:27:11 10° N visible
